When you browse on this site, cookies collect data to enhance your experience and personalize the content and advertising you see.
Visit our Privacy Policy to learn more. By continuing to use the site, you agree to this use of cookies and data.

Stündliche Wetter Dakka

Heute, 8 August, Samstag

Zeit Temperatur Niederschläge Wind Luftdruck Luftfeuchtigkeit
00:00 +30°C° 0 mm 2 m/S 750 mmHg 86%
01:00 +30°C° 0 mm 2 m/S 750 mmHg 87%
02:00 +30°C° 0 mm 2 m/S 750 mmHg 87%
03:00 +29°C° 0 mm 2 m/S 749 mmHg 88%
04:00 +29°C° 0 mm 2 m/S 749 mmHg 88%
05:00 +29°C° 0 mm 2 m/S 749 mmHg 88%
06:00 +29°C° 0 mm 2 m/S 749 mmHg 89%
07:00 +31°C° 0 mm 2 m/S 750 mmHg 83%
08:00 +33°C° 0 mm 3 m/S 750 mmHg 77%
09:00 +34°C° 0 mm 3 m/S 750 mmHg 71%
10:00 +35°C° 0.1 mm 4 m/S 750 mmHg 69%
11:00 +35°C° 0.1 mm 4 m/S 749 mmHg 66%
12:00 +36°C° 0 mm 3 m/S 749 mmHg 61%
13:00 +36°C° 0.2 mm 4 m/S 748 mmHg 61%
14:00 +36°C° 0.2 mm 4 m/S 748 mmHg 61%
15:00 +36°C° 0.2 mm 5 m/S 747 mmHg 61%
16:00 +35°C° 0.3 mm 4 m/S 747 mmHg 66%
17:00 +35°C° 0.3 mm 4 m/S 747 mmHg 70%
18:00 +33°C° 0 mm 3 m/S 747 mmHg 74%
19:00 +33°C° 0.1 mm 3 m/S 748 mmHg 76%
20:00 +33°C° 0.1 mm 3 m/S 749 mmHg 77%
21:00 +32°C° 0.1 mm 4 m/S 749 mmHg 79%
22:00 +32°C° 0 mm 4 m/S 749 mmHg 81%
23:00 +30°C° 0 mm 3 m/S 749 mmHg 82%

Morgen, 9 August, Sonntag

Zeit Temperatur Niederschläge Wind Luftdruck Luftfeuchtigkeit
00:00 +30°C° 0 mm 3 m/S 749 mmHg 84%
01:00 +30°C° 0 mm 3 m/S 749 mmHg 85%
02:00 +30°C° 0 mm 3 m/S 749 mmHg 86%
03:00 +30°C° 0 mm 2 m/S 749 mmHg 88%
04:00 +29°C° 0 mm 3 m/S 749 mmHg 88%
05:00 +29°C° 0 mm 3 m/S 749 mmHg 88%
06:00 +29°C° 0 mm 3 m/S 749 mmHg 88%
07:00 +30°C° 0 mm 4 m/S 749 mmHg 84%
08:00 +33°C° 0 mm 4 m/S 750 mmHg 79%
09:00 +34°C° 0 mm 4 m/S 750 mmHg 74%
10:00 +34°C° 1.2 mm 5 m/S 750 mmHg 71%
11:00 +35°C° 1.2 mm 5 m/S 749 mmHg 69%
12:00 +36°C° 1.2 mm 5 m/S 749 mmHg 67%
13:00 +35°C° 1.4 mm 5 m/S 749 mmHg 67%
14:00 +35°C° 1.4 mm 6 m/S 748 mmHg 68%
15:00 +35°C° 1.4 mm 6 m/S 747 mmHg 69%
16:00 +34°C° 0.3 mm 5 m/S 747 mmHg 71%
17:00 +34°C° 0.3 mm 5 m/S 747 mmHg 74%
18:00 +33°C° 0.3 mm 5 m/S 747 mmHg 76%
19:00 +33°C° 0.1 mm 4 m/S 747 mmHg 78%
20:00 +32°C° 0.1 mm 4 m/S 748 mmHg 80%
21:00 +32°C° 0.1 mm 4 m/S 749 mmHg 82%
22:00 +30°C° 0 mm 4 m/S 749 mmHg 83%
23:00 +30°C° 0 mm 4 m/S 749 mmHg 83%

übermorgen, 10 August, Montag

Zeit Temperatur Niederschläge Wind Luftdruck Luftfeuchtigkeit
00:00 +30°C° 0 mm 4 m/S 749 mmHg 84%
01:00 +30°C° 0.6 mm 4 m/S 749 mmHg 85%
02:00 +30°C° 0.6 mm 4 m/S 749 mmHg 85%
03:00 +30°C° 0.6 mm 4 m/S 749 mmHg 86%
04:00 +30°C° 0.1 mm 3 m/S 749 mmHg 86%
05:00 +29°C° 0.1 mm 3 m/S 749 mmHg 87%
06:00 +29°C° 0.1 mm 3 m/S 749 mmHg 88%
07:00 +30°C° 0.3 mm 4 m/S 750 mmHg 83%
08:00 +32°C° 0.3 mm 4 m/S 750 mmHg 78%
09:00 +33°C° 0.3 mm 5 m/S 750 mmHg 73%
10:00 +34°C° 0.6 mm 5 m/S 750 mmHg 71%
11:00 +35°C° 0.6 mm 6 m/S 750 mmHg 69%
12:00 +36°C° 0.6 mm 6 m/S 749 mmHg 66%
13:00 +36°C° 1.1 mm 6 m/S 749 mmHg 66%
14:00 +36°C° 1.1 mm 5 m/S 748 mmHg 66%
15:00 +36°C° 1.1 mm 5 m/S 748 mmHg 65%
16:00 +35°C° 1.3 mm 5 m/S 748 mmHg 69%
17:00 +34°C° 1.3 mm 5 m/S 747 mmHg 72%
18:00 +34°C° 1.3 mm 5 m/S 747 mmHg 76%
19:00 +33°C° 1.4 mm 5 m/S 748 mmHg 78%
20:00 +32°C° 1.4 mm 5 m/S 749 mmHg 80%
21:00 +32°C° 1.4 mm 5 m/S 749 mmHg 82%
22:00 +32°C° 0.4 mm 5 m/S 749 mmHg 83%
23:00 +30°C° 0.4 mm 4 m/S 749 mmHg 84%

11 August, Dienstag

Zeit Temperatur Niederschläge Wind Luftdruck Luftfeuchtigkeit
00:00 +30°C° 0.4 mm 4 m/S 749 mmHg 85%
01:00 +30°C° 0.7 mm 4 m/S 749 mmHg 86%
02:00 +30°C° 0.7 mm 3 m/S 749 mmHg 87%
03:00 +30°C° 0.7 mm 3 m/S 748 mmHg 88%
04:00 +30°C° 1.1 mm 3 m/S 748 mmHg 88%
05:00 +30°C° 1.1 mm 3 m/S 748 mmHg 88%
06:00 +29°C° 1.1 mm 3 m/S 749 mmHg 88%
07:00 +30°C° 0 mm 3 m/S 749 mmHg 85%
08:00 +32°C° 0 mm 4 m/S 749 mmHg 81%
09:00 +33°C° 0 mm 4 m/S 750 mmHg 77%
10:00 +34°C° 0.5 mm 4 m/S 749 mmHg 72%
11:00 +35°C° 0.5 mm 4 m/S 749 mmHg 68%
12:00 +36°C° 0.5 mm 5 m/S 749 mmHg 63%
13:00 +36°C° 1.2 mm 5 m/S 748 mmHg 63%
14:00 +36°C° 1.2 mm 5 m/S 748 mmHg 64%
15:00 +36°C° 1.2 mm 5 m/S 747 mmHg 64%
16:00 +35°C° 1.3 mm 5 m/S 747 mmHg 68%
17:00 +34°C° 1.3 mm 5 m/S 747 mmHg 72%
18:00 +33°C° 1.3 mm 5 m/S 747 mmHg 76%
19:00 +33°C° 0.9 mm 5 m/S 748 mmHg 78%
20:00 +32°C° 0.9 mm 5 m/S 749 mmHg 81%
21:00 +32°C° 0.9 mm 5 m/S 749 mmHg 83%
22:00 +30°C° 0 mm 5 m/S 749 mmHg 84%
23:00 +30°C° 0 mm 5 m/S 749 mmHg 85%

12 August, Mittwoch

Zeit Temperatur Niederschläge Wind Luftdruck Luftfeuchtigkeit
00:00 +30°C° 0 mm 4 m/S 749 mmHg 85%
01:00 +30°C° 0 mm 4 m/S 749 mmHg 86%
02:00 +30°C° 0 mm 4 m/S 748 mmHg 87%
03:00 +30°C° 0 mm 4 m/S 748 mmHg 87%
04:00 +29°C° 0 mm 4 m/S 748 mmHg 87%
05:00 +29°C° 0 mm 4 m/S 748 mmHg 87%
06:00 +29°C° 0 mm 4 m/S 748 mmHg 87%
07:00 +30°C° 0 mm 4 m/S 749 mmHg 83%
08:00 +33°C° 0 mm 5 m/S 749 mmHg 78%
09:00 +34°C° 0 mm 5 m/S 750 mmHg 73%
10:00 +35°C° 0.6 mm 5 m/S 749 mmHg 70%
11:00 +35°C° 0.6 mm 5 m/S 749 mmHg 67%
12:00 +36°C° 0.6 mm 5 m/S 749 mmHg 64%
13:00 +36°C° 1.5 mm 5 m/S 748 mmHg 64%
14:00 +36°C° 1.5 mm 5 m/S 747 mmHg 64%
15:00 +36°C° 1.5 mm 5 m/S 747 mmHg 63%
16:00 +36°C° 0.3 mm 5 m/S 747 mmHg 66%
17:00 +35°C° 0.3 mm 5 m/S 747 mmHg 69%
18:00 +34°C° 0.3 mm 5 m/S 747 mmHg 72%
19:00 +33°C° 0 mm 5 m/S 747 mmHg 75%
20:00 +32°C° 0 mm 5 m/S 748 mmHg 77%
21:00 +32°C° 0 mm 5 m/S 749 mmHg 80%
22:00 +32°C° 0 mm 5 m/S 749 mmHg 81%
23:00 +30°C° 0 mm 5 m/S 749 mmHg 82%

13 August, Donnerstag

Zeit Temperatur Niederschläge Wind Luftdruck Luftfeuchtigkeit
00:00 +30°C° 0 mm 5 m/S 749 mmHg 83%
01:00 +30°C° 0 mm 5 m/S 748 mmHg 84%
02:00 +30°C° 0 mm 4 m/S 748 mmHg 85%
03:00 +30°C° 0 mm 4 m/S 748 mmHg 85%
04:00 +30°C° 0.1 mm 4 m/S 748 mmHg 86%
05:00 +29°C° 0.1 mm 4 m/S 748 mmHg 86%
06:00 +29°C° 0.1 mm 4 m/S 748 mmHg 87%
07:00 +30°C° 0.1 mm 5 m/S 748 mmHg 82%
08:00 +32°C° 0.1 mm 5 m/S 749 mmHg 78%
09:00 +34°C° 0.1 mm 5 m/S 749 mmHg 73%
10:00 +34°C° 0.4 mm 6 m/S 749 mmHg 70%
11:00 +35°C° 0.4 mm 6 m/S 748 mmHg 67%
12:00 +36°C° 0.4 mm 6 m/S 748 mmHg 64%
13:00 +36°C° 0.2 mm 6 m/S 747 mmHg 63%
14:00 +36°C° 0.2 mm 7 m/S 746 mmHg 62%
15:00 +36°C° 0.2 mm 7 m/S 746 mmHg 61%
16:00 +35°C° 0 mm 7 m/S 746 mmHg 65%
17:00 +34°C° 0 mm 6 m/S 745 mmHg 69%
18:00 +33°C° 0 mm 6 m/S 745 mmHg 73%
19:00 +33°C° 0 mm 6 m/S 746 mmHg 75%
20:00 +32°C° 0 mm 5 m/S 747 mmHg 77%
21:00 +32°C° 0 mm 5 m/S 748 mmHg 79%
22:00 +32°C° 0 mm 5 m/S 748 mmHg 80%
23:00 +32°C° 0 mm 5 m/S 748 mmHg 81%
Mehr zeigen